Location: Fremont
(37.5480°N, 121.9880°W)
Time: 13:08:20
(UTC-07:00)

Daily predictions for brighter satellites

Satellite Brightness Start Highest point End
(mag) Time Altitude Azimuth Time Altitude Azimuth Time Altitude Azimuth
SeaSat 1 3.0 20:14:30 10° NE 20:19:04 37° ESE 20:23:36 10° S
SJ-6B 3.1 20:15:57 10° S 20:19:58 80° W 20:24:05 10° NNW
Meteor 1-25 Rocket 4.3 20:15:01 10° S 20:20:51 79° E 20:26:40 10° NNE
Cosmos 2360 4.2 20:15:30 10° S 20:21:06 65° ESE 20:26:45 10° NNE
Meteor 1-14 Rocket 4.5 20:16:26 10° SSW 20:22:07 80° W 20:27:43 10° N
Spot 2 Rocket 4.0 20:17:33 10° SE 20:22:21 43° ENE 20:27:10 10° N
NOSS 3-1 (C) 4.1 20:17:41 10° SW 20:23:18 61° NW 20:29:36 10° NNE
Cosmos 1092 Rocket 4.2 20:17:49 10° S 20:23:55 77° W 20:30:08 10° N
Cosmos 2297 Rocket 3.5 20:19:24 10° NW 20:24:42 43° WSW 20:30:00 10° S
Cosmos 1140 Rocket 4.5 20:20:23 10° N 20:24:57 29° ENE 20:29:29 10° SE
ERBS 2.5 20:26:40 10° SW 20:30:07 79° NW 20:33:37 10° NE
Lacrosse 5 3.3 20:27:21 10° SSE 20:30:16 15° ESE 20:33:10 10° E
Meteor 1-18 Rocket 4.4 20:27:44 10° N 20:33:41 84° E 20:39:37 10° S
Cosmos 1782 Rocket 3.9 20:30:50 10° SSW 20:35:08 70° W 20:39:29 10° N
Resurs 01 Rocket 1.6 20:31:40 10° SSE 20:36:04 67° ENE 20:40:30 10° N
Cosmos 1939 Rocket 4.0 20:33:32 10° SE 20:36:55 27° ENE 20:40:15 10° NNE
Tiangong 1 2.6 20:35:58 10° WNW 20:38:23 26° N 20:40:47 10° ENE
S3M 4.5 20:33:32 10° N 20:39:25 41° ENE 20:45:20 10° SSE
Cosmos 921 Rocket 3.2 20:36:27 10° SSW 20:40:37 73° WNW 20:44:48 10° NNE
Cosmos 44 3.5 20:37:07 10° NNW 20:41:24 45° ENE 20:45:21 13° SE
Cosmos 1553 Rocket 4.3 20:36:35 10° N 20:42:29 46° ENE 20:48:18 10° SSE
Okean 1 3.2 20:38:41 10° N 20:42:39 68° E 20:46:36 10° SSE
Cosmos 1536 4.1 20:42:01 10° SE 20:45:08 22° E 20:48:16 10° NE
Cosmos 1441 Rocket 3.7 20:42:28 10° NNW 20:46:10 61° W 20:49:51 10° S
Cosmos 2322 Rocket 2.6 20:42:05 10° S 20:47:23 42° ESE 20:52:43 10° NE
Lacrosse 5 rocket 1.6 20:45:15 10° NNW 20:48:49 45° NE 20:51:33 17° ESE
Cosmos 2263 Rocket 3.5 20:45:41 10° N 20:50:11 24° ENE 20:53:38 14° E
Cosmos 2151 Rocket 3.7 20:46:54 10° S 20:51:09 52° E 20:55:26 10° NNE
Envisat 3.0 20:46:18 10° SSE 20:51:18 63° ENE 20:56:20 10° N
Helios 1B rocket 3.5 20:48:19 10° NE 20:51:41 24° E 20:54:24 13° SE
Cosmos 1975 Rocket 3.7 20:49:02 10° NNW 20:53:27 61° W 20:57:48 10° S
Meteor 1-19 Rocket 4.5 20:50:18 10° N 20:56:03 53° ENE 21:01:38 10° SSE
GPS 2-05 Rocket1 2.8 20:53:49 10° WSW 20:57:08 60° S 20:59:06 21° ESE
SL-16 R/B 2.3 20:51:56 10° S 20:57:23 51° ESE 21:02:52 10° NNE
SWAS 4.5 21:01:08 10° NNW 21:05:25 84° WSW 21:08:55 15° SSE
Cosmos 1633 3.8 21:02:06 10° SSW 21:05:33 44° W 21:09:03 10° N
ATLAS 3B R/B 4.3 21:02:11 10° N 21:06:55 20° NE 21:11:07 11° E
YAOGAN 6 3.0 21:06:28 24° SE 21:08:09 41° ENE 21:11:31 10° N
USA 186 2.7 21:05:06 10° S 21:08:20 50° W 21:11:38 10° NNW
NOSS 2-3 (D) 3.9 21:06:36 10° SSW 21:11:03 52° ESE 21:16:03 10° NE
CZ-4C R/B 4.3 21:07:27 10° NW 21:14:07 36° WSW 21:21:14 10° S
Cosmos 1536 Rocket 3.4 21:13:23 10° N 21:17:42 71° E 21:20:38 20° SSE
SJ-11-01 4.2 21:15:38 15° SSE 21:19:26 83° ENE 21:24:08 10° N
Cosmos 2360 Rocket 2.9 21:19:31 21° SE 21:22:06 31° ESE 21:27:00 10° NE
BREEZE-M DEB (TANK) 3.8 21:19:11 10° WNW 21:22:56 78° SW 21:32:22 21° SE
Cosmos 1980 Rocket 4.1 21:18:19 10° WSW 21:23:16 32° WNW 21:28:15 10° N
Meteor 1-5 Rocket 4.2 21:19:27 14° SSE 21:23:51 49° E 21:28:57 10° NNE
Helios 1A 2.9 21:25:07 29° SSE 21:27:12 69° ENE 21:31:26 10° N
Cosmos 1420 Rocket 4.4 21:23:03 10° SSW 21:28:10 63° WNW 21:33:20 10° NNE
Meteor 1-13 Rocket 4.4 21:22:22 10° N 21:28:21 82° W 21:33:49 12° S
Cosmos 1850 Rocket 4.1 21:23:39 10° N 21:28:57 62° ENE 21:31:25 31° SE
Meteor 2-4 Rocket 3.6 21:29:17 10° N 21:34:51 80° E 21:38:26 24° SSE
Cosmos 44 Rocket 4.0 21:31:14 10° NW 21:35:48 47° WSW 21:38:43 21° S
ATLAS 2AS CENTAUR R/B 2.9 21:29:36 10° SSW 21:37:05 67° ESE 21:45:05 10° NE
NOAA 11 4.3 21:37:36 33° SE 21:39:59 61° ENE 21:45:24 10° N
Spot 1 4.4 21:38:26 30° SSE 21:41:04 82° ENE 21:46:13 10° N
Atlas Centaur 2 3.1 21:33:42 10° WSW 21:41:17 48° S 21:43:52 33° SE
NOSS 2-3 (E) 4.1 21:43:31 10° SW 21:48:07 68° NW 21:53:25 10° NNE
Delta 2 Rocket 4.4 21:53:05 10° SW 21:56:02 35° SSW 21:56:02 35° SSW
Cosmos 883 Rocket 4.4 21:51:17 10° N 21:57:27 89° WSW 22:00:26 33° S
DELTA 2 R/B (1) 3.9 21:52:17 10° W 21:57:43 52° SSW 21:58:51 44° SSE
SAR-Lupe-4 3.7 22:01:07 71° NNW 22:01:07 71° NNW 22:04:23 10° NNW
SPOT 5 3.1 22:05:07 51° ENE 22:05:09 51° ENE 22:09:45 10° N
Cosmos 1244 Rocket 4.4 22:04:17 48° SE 22:05:42 61° E 22:11:45 10° NNE
Meteor 1-29 4.2 22:04:25 10° N 22:07:39 40° WNW 22:08:14 36° WSW
MetOp-A 4.0 22:08:43 55° SSE 22:09:58 89° WSW 22:15:21 10° NNW
Lacrosse 5 2.0 22:07:36 10° SW 22:12:40 74° NW 22:17:44 10° NE
Tiangong 1 3.7 22:11:33 10° WNW 22:12:33 19° NW 22:12:33 19° NW
Okean 1 Rocket 4.0 22:12:47 25° SW 22:14:53 44° W 22:19:05 10° N
Okean 1-7 Rocket 3.6 22:15:15 10° N 22:19:36 77° WNW 22:19:36 77° WNW
H-2A R/B 2.1 22:22:12 61° NE 22:22:12 61° NE 22:26:52 10° N
ERS-1 Rocket 3.6 22:26:17 45° SW 22:27:15 51° W 22:32:09 10° NNW
Lacrosse 5 rocket 3.6 22:25:21 10° W 22:27:15 16° WSW 22:27:15 16° WSW
ARGOS 3.1 22:27:30 68° SSW 22:28:04 76° WSW 22:33:27 10° NNW
Cosmos 2237 4.1 22:30:12 71° ENE 22:30:12 71° ENE 22:35:26 10° NNE
Cosmos 2278 Rocket 4.3 22:28:31 10° NNE 22:31:22 14° NE 22:31:25 14° NE
Cosmos 2322 Rocket 4.3 22:26:50 10° WSW 22:31:33 26° WNW 22:36:18 10° N
Cosmos 2315 Rocket 4.2 22:25:23 10° NNW 22:31:33 65° W 22:33:27 45° SSW
Cosmos 1025 Rocket 3.8 22:29:25 10° NNW 22:33:10 47° WNW 22:33:10 47° WNW
Cosmos 2263 Rocket 2.8 22:28:54 10° NW 22:34:21 47° WSW 22:35:21 43° SW
Cosmos 1607 4.0 22:29:49 10° NW 22:36:15 71° WSW 22:37:06 63° SSW
USA 238 DEB 3.9 22:29:22 10° NNW 22:36:22 58° NE 22:37:17 54° E
USA 238 3.9 22:29:28 10° NNW 22:36:27 57° NE 22:37:23 53° E
USA 245 4.3 22:42:06 60° WSW 22:42:07 60° W 22:46:47 10° NNW
Cosmos 1844 Rocket 3.5 22:37:29 10° N 22:42:07 39° NE 22:42:07 39° NE
H-2A R/B 4.4 22:47:26 15° NNE 22:47:26 15° NNE 22:48:35 10° NNE
Cosmos 2322 4.2 22:47:41 37° WSW 22:49:38 56° WNW 22:55:14 10° NNE
Cosmos 2219 Rocket 3.9 22:56:04 22° NE 22:56:04 22° NE 22:58:04 10° NE
COSMOS 2428 3.3 22:58:58 50° NNE 22:58:58 50° NNE 23:03:08 10° NNE
ATLAS 3B R/B 2.5 22:51:50 10° NNW 22:58:22 85° NNW 22:58:22 85° NNW
Cosmos 1745 Rocket 4.0 23:00:14 69° NNE 23:00:14 69° NNE 23:05:36 10° N
BREEZE M DEB (TANK) 4.4 22:55:35 10° WSW 22:59:27 28° W 22:59:27 28° W
Terra 3.2 23:03:30 35° N 23:03:30 35° N 23:06:17 10° N
Cosmos 2360 Rocket 3.7 23:01:02 10° WSW 23:05:59 33° WNW 23:11:04 10° N
Cosmos 2333 Rocket 4.0 23:14:46 21° NE 23:14:46 21° NE 23:16:40 10° NNE
Atlas Centaur 2 4.4 23:24:03 10° W 23:26:30 19° WSW 23:26:30 19° WSW
Cosmos 2237 Rocket 4.2 23:38:56 19° NE 23:38:56 19° NE 23:40:30 10° NNE
CENTAUR R/B 4.1 23:43:45 10° NNW 23:50:50 35° NE 23:51:46 34° ENE
